Time,TemperatureF,DewpointF,PressureIn,WindDirection,WindDirectionDegrees,WindSpeedMPH,WindSpeedGustMPH,Humidity,HourlyPrecipIn,Conditions,Clouds,dailyrainin,SoftwareType,DateUTC
2013-05-10 00:00:00,65.9,57.7,30.03,WNW,293,0.0,0.0,75,0.00,,,0.00,WUHU216HW,2013-05-10 04:00:00,
2013-05-10 00:01:00,65.9,57.7,30.03,WNW,293,0.0,0.0,75,0.00,,,0.00,WUHU216HW,2013-05-10 04:01:00,
2013-05-10 00:06:00,65.9,57.7,30.03,WNW,293,0.0,0.0,75,0.00,,,0.00,WUHU216HW,2013-05-10 04:06:00,
2013-05-10 00:30:00,65.3,58.0,30.03,South,180,0.0,0.0,77,0.00,,,0.00,WUHU216HW,2013-05-10 04:30:00,
2013-05-10 00:35:00,65.3,58.0,30.03,South,180,0.0,0.0,77,0.00,,,0.00,WUHU216HW,2013-05-10 04:35:00,
2013-05-10 01:00:00,64.8,58.2,30.03,South,180,0.0,0.0,79,0.00,,,0.00,WUHU216HW,2013-05-10 05:00:00,
2013-05-10 01:05:00,64.8,58.2,30.03,South,180,0.0,0.0,79,0.00,,,0.00,WUHU216HW,2013-05-10 05:05:00,
2013-05-10 01:30:00,64.3,58.0,30.03,South,180,0.0,0.0,80,0.00,,,0.00,WUHU216HW,2013-05-10 05:30:00,
2013-05-10 01:35:00,64.3,58.0,30.03,South,180,0.0,0.0,80,0.00,,,0.00,WUHU216HW,2013-05-10 05:35:00,
2013-05-10 02:00:00,63.7,57.8,30.02,SSE,158,0.0,0.0,81,0.00,,,0.00,WUHU216HW,2013-05-10 06:00:00,
2013-05-10 02:05:00,63.7,57.8,30.02,SSE,158,0.0,0.0,81,0.00,,,0.00,WUHU216HW,2013-05-10 06:05:00,
2013-05-10 02:30:00,63.2,57.6,30.01,SSE,158,0.0,0.0,82,0.00,,,0.00,WUHU216HW,2013-05-10 06:30:00,
2013-05-10 02:35:00,63.2,57.6,30.01,SSE,158,0.0,0.0,82,0.00,,,0.00,WUHU216HW,2013-05-10 06:35:00,
2013-05-10 02:59:00,62.5,57.3,30.01,WSW,248,0.0,0.0,83,0.00,,,0.00,WUHU216HW,2013-05-10 06:59:00,
2013-05-10 03:00:00,62.5,57.3,30.01,WSW,248,0.0,0.0,83,0.00,,,0.00,WUHU216HW,2013-05-10 07:00:00,
2013-05-10 03:05:00,62.5,57.3,30.01,WSW,248,0.0,0.0,83,0.00,,,0.00,WUHU216HW,2013-05-10 07:05:00,
2013-05-10 03:30:00,61.6,56.7,30.01,WSW,248,0.0,0.0,84,0.00,,,0.00,WUHU216HW,2013-05-10 07:30:00,
2013-05-10 03:35:00,61.6,56.7,30.01,WSW,248,0.0,0.0,84,0.00,,,0.00,WUHU216HW,2013-05-10 07:35:00,
2013-05-10 03:59:00,61.4,57.5,30.00,WSW,248,0.0,0.0,87,0.00,,,0.00,WUHU216HW,2013-05-10 07:59:00,
2013-05-10 04:00:00,61.4,57.5,30.00,WSW,248,0.0,0.0,87,0.00,,,0.00,WUHU216HW,2013-05-10 08:00:00,
2013-05-10 04:05:00,61.4,57.5,30.00,WSW,248,0.0,0.0,87,0.00,,,0.00,WUHU216HW,2013-05-10 08:05:00,
2013-05-10 04:30:00,61.4,57.9,30.01,ESE,113,0.0,0.0,88,0.00,,,0.00,WUHU216HW,2013-05-10 08:30:00,
2013-05-10 04:35:00,61.4,57.9,30.01,ESE,113,0.0,0.0,88,0.00,,,0.00,WUHU216HW,2013-05-10 08:35:00,
2013-05-10 04:59:00,61.4,58.1,30.00,ESE,113,0.0,0.0,89,0.00,,,0.00,WUHU216HW,2013-05-10 08:59:00,
2013-05-10 05:00:00,61.4,58.1,30.00,ESE,113,0.0,0.0,89,0.00,,,0.00,WUHU216HW,2013-05-10 09:00:00,
2013-05-10 05:05:00,61.4,58.1,30.00,ESE,113,0.0,0.0,89,0.00,,,0.00,WUHU216HW,2013-05-10 09:05:00,
2013-05-10 05:30:00,61.4,57.9,30.00,ESE,113,0.0,0.0,88,0.00,,,0.00,WUHU216HW,2013-05-10 09:30:00,
2013-05-10 05:35:00,61.4,57.9,30.00,ESE,113,0.0,0.0,88,0.00,,,0.00,WUHU216HW,2013-05-10 09:35:00,
2013-05-10 05:59:00,60.8,57.6,30.00,ESE,113,0.0,0.0,89,0.00,,,0.00,WUHU216HW,2013-05-10 09:59:00,
2013-05-10 06:00:00,60.8,57.6,30.00,ESE,113,0.0,0.0,89,0.00,,,0.00,WUHU216HW,2013-05-10 10:00:00,
2013-05-10 06:05:00,60.8,57.6,30.00,ESE,113,0.0,0.0,89,0.00,,,0.00,WUHU216HW,2013-05-10 10:05:00,
2013-05-10 06:30:00,60.7,57.4,30.00,ESE,113,0.0,0.0,89,0.00,,,0.00,WUHU216HW,2013-05-10 10:30:00,
2013-05-10 06:35:00,60.7,57.4,30.00,ESE,113,0.0,0.0,89,0.00,,,0.00,WUHU216HW,2013-05-10 10:35:00,
2013-05-10 06:59:00,60.8,57.6,30.00,ESE,113,0.0,0.0,89,0.00,,,0.00,WUHU216HW,2013-05-10 10:59:00,
2013-05-10 07:00:00,60.8,57.6,30.00,ESE,113,0.0,0.0,89,0.00,,,0.00,WUHU216HW,2013-05-10 11:00:00,
2013-05-10 07:05:00,60.8,57.6,30.00,ESE,113,0.0,0.0,89,0.00,,,0.00,WUHU216HW,2013-05-10 11:05:00,
2013-05-10 07:30:00,61.0,57.8,30.00,ESE,113,0.0,0.0,89,0.00,,,0.00,WUHU216HW,2013-05-10 11:30:00,
2013-05-10 07:35:00,61.0,57.8,30.00,ESE,113,0.0,0.0,89,0.00,,,0.00,WUHU216HW,2013-05-10 11:35:00,
2013-05-10 07:59:00,62.3,58.7,30.00,ENE,68,0.0,0.0,88,0.00,,,0.00,WUHU216HW,2013-05-10 11:59:00,
2013-05-10 08:00:00,62.3,58.7,30.00,ENE,68,0.0,0.0,88,0.00,,,0.00,WUHU216HW,2013-05-10 12:00:00,
2013-05-10 08:05:00,62.3,58.7,30.00,ENE,68,0.0,0.0,88,0.00,,,0.00,WUHU216HW,2013-05-10 12:05:00,
2013-05-10 08:30:00,63.7,59.5,30.01,NW,315,0.0,0.0,86,0.00,,,0.00,WUHU216HW,2013-05-10 12:30:00,
2013-05-10 08:35:00,63.7,59.5,30.01,NW,315,0.0,0.0,86,0.00,,,0.00,WUHU216HW,2013-05-10 12:35:00,
2013-05-10 08:59:00,66.6,61.6,30.02,WSW,248,0.0,0.0,84,0.00,,,0.00,WUHU216HW,2013-05-10 12:59:00,
2013-05-10 09:00:00,66.6,61.6,30.02,WSW,248,0.0,0.0,84,0.00,,,0.00,WUHU216HW,2013-05-10 13:00:00,
2013-05-10 09:05:00,66.6,61.6,30.02,WSW,248,0.0,0.0,84,0.00,,,0.00,WUHU216HW,2013-05-10 13:05:00,
2013-05-10 09:30:00,71.6,63.3,30.02,SSW,203,0.2,0.2,75,0.00,,,0.00,WUHU216HW,2013-05-10 13:30:00,
2013-05-10 09:35:00,71.6,63.3,30.02,SSW,203,0.2,0.2,75,0.00,,,0.00,WUHU216HW,2013-05-10 13:35:00,
2013-05-10 09:59:00,74.5,64.5,30.02,South,180,0.4,0.4,71,0.00,,,0.00,WUHU216HW,2013-05-10 13:59:00,
2013-05-10 10:00:00,74.5,64.5,30.02,South,180,0.4,0.4,71,0.00,,,0.00,WUHU216HW,2013-05-10 14:00:00,
2013-05-10 10:05:00,74.5,64.5,30.02,South,180,0.4,0.4,71,0.00,,,0.00,WUHU216HW,2013-05-10 14:05:00,
2013-05-10 10:30:00,82.4,65.1,30.02,SW,225,0.4,0.4,56,0.00,,,0.00,WUHU216HW,2013-05-10 14:30:00,
2013-05-10 10:35:00,82.4,65.1,30.02,SW,225,0.4,0.4,56,0.00,,,0.00,WUHU216HW,2013-05-10 14:35:00,
2013-05-10 10:59:00,86.8,66.0,30.02,NNW,338,0.4,0.4,50,0.00,,,0.00,WUHU216HW,2013-05-10 14:59:00,
2013-05-10 11:00:00,86.8,66.0,30.02,NNW,338,0.4,0.4,50,0.00,,,0.00,WUHU216HW,2013-05-10 15:00:00,
2013-05-10 11:05:00,86.8,66.0,30.02,NNW,338,0.4,0.4,50,0.00,,,0.00,WUHU216HW,2013-05-10 15:05:00,
2013-05-10 11:30:00,88.0,63.4,30.02,SE,135,0.4,0.4,44,0.00,,,0.00,WUHU216HW,2013-05-10 15:30:00,
2013-05-10 11:35:00,88.0,63.4,30.02,SE,135,0.4,0.4,44,0.00,,,0.00,WUHU216HW,2013-05-10 15:35:00,
2013-05-10 11:59:00,88.2,62.2,30.03,North,0,0.9,0.9,42,0.00,,,0.00,WUHU216HW,2013-05-10 15:59:00,
2013-05-10 12:00:00,88.2,62.2,30.03,North,0,0.9,0.9,42,0.00,,,0.00,WUHU216HW,2013-05-10 16:00:00,
2013-05-10 12:05:00,88.2,62.2,30.03,North,0,0.9,0.9,42,0.00,,,0.00,WUHU216HW,2013-05-10 16:05:00,
2013-05-10 12:30:00,90.5,61.3,30.02,SE,135,1.1,1.1,38,0.00,,,0.00,WUHU216HW,2013-05-10 16:30:00,
2013-05-10 12:35:00,90.5,61.3,30.02,SE,135,1.1,1.1,38,0.00,,,0.00,WUHU216HW,2013-05-10 16:35:00,
2013-05-10 12:59:00,91.1,62.7,30.01,NNW,338,1.1,1.1,39,0.00,,,0.00,WUHU216HW,2013-05-10 16:59:00,
2013-05-10 13:00:00,91.1,62.7,30.01,NNW,338,1.1,1.1,39,0.00,,,0.00,WUHU216HW,2013-05-10 17:00:00,
2013-05-10 13:05:00,91.1,62.7,30.01,NNW,338,1.1,1.1,39,0.00,,,0.00,WUHU216HW,2013-05-10 17:05:00,
2013-05-10 13:30:00,88.7,61.4,30.00,NNE,23,0.4,0.4,40,0.00,,,0.00,WUHU216HW,2013-05-10 17:30:00,
2013-05-10 13:35:00,88.7,61.4,30.00,NNE,23,0.4,0.4,40,0.00,,,0.00,WUHU216HW,2013-05-10 17:35:00,
2013-05-10 14:00:00,90.2,61.0,30.00,NNW,338,2.2,2.2,38,0.00,,,0.00,WUHU216HW,2013-05-10 18:00:00,
2013-05-10 14:30:00,90.4,61.9,29.99,SE,135,0.7,0.7,39,0.00,,,0.00,WUHU216HW,2013-05-10 18:30:00,
2013-05-10 15:00:00,91.8,58.5,29.97,SSW,203,1.1,1.1,33,0.00,,,0.00,WUHU216HW,2013-05-10 19:00:00,
2013-05-10 15:30:00,88.9,60.0,29.96,SW,225,1.3,1.3,38,0.00,,,0.00,WUHU216HW,2013-05-10 19:30:00,
2013-05-10 16:00:00,88.0,60.0,29.94,ESE,113,1.1,1.1,39,0.00,,,0.00,WUHU216HW,2013-05-10 20:00:00,
2013-05-10 16:30:00,87.1,60.0,29.94,North,0,2.2,2.2,40,0.00,,,0.00,WUHU216HW,2013-05-10 20:30:00,
2013-05-10 16:59:00,86.4,60.7,29.93,SSW,203,0.0,0.0,42,0.00,,,0.00,WUHU216HW,2013-05-10 20:59:00,
2013-05-10 17:29:00,84.8,60.4,29.93,SSE,158,0.4,0.4,44,0.00,,,0.00,WUHU216HW,2013-05-10 21:29:00,
2013-05-10 17:59:00,83.9,60.8,29.92,SSE,158,0.0,0.0,46,0.00,,,0.00,WUHU216HW,2013-05-10 21:59:00,
2013-05-10 18:30:00,82.6,60.3,29.92,SW,225,0.4,0.4,47,0.00,,,0.00,WUHU216HW,2013-05-10 22:30:00,
2013-05-10 18:59:00,81.5,60.5,29.92,NW,315,0.0,0.0,49,0.00,,,0.00,WUHU216HW,2013-05-10 22:59:00,
2013-05-10 19:30:00,79.9,60.2,29.91,SW,225,0.0,0.0,51,0.00,,,0.00,WUHU216HW,2013-05-10 23:30:00,
2013-05-10 19:35:00,79.7,60.0,29.92,SW,225,0.0,0.0,51,0.00,,,0.00,WUHU216HW,2013-05-10 23:35:00,
2013-05-10 19:40:00,79.6,60.4,29.92,WSW,248,0.0,0.0,52,0.00,,,0.00,WUHU216HW,2013-05-10 23:40:00,
2013-05-10 19:45:00,79.2,60.6,29.91,WSW,248,0.0,0.0,53,0.00,,,0.00,WUHU216HW,2013-05-10 23:45:00,